| time (UTC) | temp C | wind direction | speed KPH | gust KPH | rain 1hr cm | rain 24hr cm | rain mn cm | humidity % | barometer mb |
| 20260507002517 | 19 | 238 | 3.2 | 11.3 | 0.00 | 0.41 | 0.41 | 77 | 1008.2 |
| 20260507002023 | 19 | 252 | 3.2 | 11.3 | 0.00 | 0.41 | 0.41 | 77 | 1008.2 |
| 20260507001540 | 19 | 204 | 4.8 | 16.1 | 0.00 | 0.41 | 0.41 | 77 | 1008.2 |
| 20260507001017 | 19 | 211 | 8.0 | 16.1 | 0.00 | 0.41 | 0.41 | 77 | 1008.0 |
| 20260507000517 | 19 | 207 | 6.4 | 14.5 | 0.00 | 0.41 | 0.41 | 77 | 1008.0 |
| 20260507000041 | 20 | 214 | 4.8 | 14.5 | 0.00 | 0.41 | 0.41 | 76 | 1008.1 |
| 20260506235517 | 20 | 191 | 6.4 | 14.5 | 0.00 | 0.41 | 0.41 | 76 | 1008.0 |
| 20260506235018 | 20 | 207 | 4.8 | 9.7 | 0.00 | 0.41 | 0.41 | 76 | 1008.0 |
| 20260506234535 | 20 | 216 | 3.2 | 9.7 | 0.00 | 0.41 | 0.41 | 76 | 1008.0 |
| 20260506234017 | 20 | 184 | 3.2 | 14.5 | 0.00 | 0.41 | 0.41 | 76 | 1008.2 |
| 20260506233517 | 20 | 163 | 4.8 | 14.5 | 0.00 | 0.41 | 0.41 | 76 | 1008.2 |
| 20260506233036 | 20 | 238 | 6.4 | 12.9 | 0.00 | 0.41 | 0.41 | 76 | 1008.0 |
| 20260506232516 | 20 | 287 | 3.2 | 11.3 | 0.00 | 0.41 | 0.41 | 76 | 1008.0 |
| 20260506232016 | 20 | 209 | 4.8 | 11.3 | 0.00 | 0.41 | 0.41 | 75 | 1007.9 |
| 20260506231543 | 20 | 233 | 3.2 | 11.3 | 0.00 | 0.41 | 0.41 | 75 | 1008.0 |
| 20260506231017 | 20 | 199 | 3.2 | 14.5 | 0.00 | 0.41 | 0.41 | 75 | 1008.0 |
| 20260506230517 | 20 | 214 | 6.4 | 14.5 | 0.00 | 0.41 | 0.41 | 75 | 1007.9 |
| 20260506230037 | 20 | 212 | 4.8 | 12.9 | 0.00 | 0.41 | 0.41 | 75 | 1007.9 |
| 20260506225518 | 20 | 213 | 3.2 | 9.7 | 0.00 | 0.41 | 0.41 | 75 | 1008.0 |
| 20260506225018 | 20 | 225 | 4.8 | 11.3 | 0.00 | 0.41 | 0.41 | 75 | 1007.9 |
| 20260506224542 | 20 | 192 | 6.4 | 11.3 | 0.00 | 0.41 | 0.41 | 75 | 1007.8 |
| 20260506224017 | 20 | 213 | 6.4 | 14.5 | 0.00 | 0.41 | 0.41 | 75 | 1007.8 |
| 20260506223520 | 20 | 201 | 4.8 | 14.5 | 0.00 | 0.41 | 0.41 | 75 | 1007.8 |
| 20260506223036 | 20 | 196 | 4.8 | 12.9 | 0.00 | 0.41 | 0.41 | 75 | 1007.9 |
| 20260506222519 | 20 | 306 | 3.2 | 12.9 | 0.00 | 0.41 | 0.41 | 75 | 1007.9 |
| 20260506222018 | 20 | 205 | 4.8 | 16.1 | 0.00 | 0.41 | 0.41 | 75 | 1007.8 |
| 20260506221535 | 20 | 250 | 4.8 | 19.3 | 0.00 | 0.41 | 0.41 | 75 | 1007.7 |
| 20260506221018 | 20 | 212 | 6.4 | 19.3 | 0.00 | 0.41 | 0.41 | 74 | 1007.7 |
| 20260506220517 | 20 | 257 | 4.8 | 19.3 | 0.00 | 0.41 | 0.41 | 74 | 1007.8 |
| 20260506220040 | 20 | 275 | 8.0 | 16.1 | 0.00 | 0.41 | 0.41 | 73 | 1007.9 |
| 20260506215517 | 21 | 227 | 4.8 | 16.1 | 0.00 | 0.41 | 0.41 | 73 | 1007.7 |
| 20260506215016 | 21 | 110 | 4.8 | 16.1 | 0.00 | 0.41 | 0.41 | 73 | 1007.6 |
| 20260506214543 | 21 | 275 | 3.2 | 16.1 | 0.00 | 0.41 | 0.41 | 74 | 1007.6 |
| 20260506214017 | 21 | 299 | 8.0 | 20.9 | 0.00 | 0.41 | 0.41 | 74 | 1007.5 |
| 20260506213516 | 21 | 202 | 6.4 | 20.9 | 0.00 | 0.41 | 0.41 | 74 | 1007.5 |
| 20260506213034 | 20 | 246 | 6.4 | 17.7 | 0.00 | 0.41 | 0.41 | 75 | 1007.6 |
| 20260506212518 | 20 | 252 | 4.8 | 14.5 | 0.00 | 0.41 | 0.41 | 75 | 1007.5 |
| 20260506212016 | 20 | 219 | 4.8 | 14.5 | 0.00 | 0.41 | 0.41 | 76 | 1007.5 |
| 20260506211534 | 20 | 352 | 4.8 | 12.9 | 0.00 | 0.41 | 0.41 | 76 | 1007.5 |
| 20260506211016 | 20 | 187 | 4.8 | 17.7 | 0.00 | 0.41 | 0.41 | 77 | 1007.3 |
| 20260506210516 | 20 | 273 | 3.2 | 19.3 | 0.00 | 0.41 | 0.41 | 76 | 1007.4 |
| 20260506210041 | 20 | 275 | 6.4 | 27.4 | 0.00 | 0.41 | 0.41 | 76 | 1007.5 |
| 20260506205518 | 20 | 200 | 8.0 | 27.4 | 0.00 | 0.41 | 0.41 | 76 | 1007.5 |
| 20260506205018 | 20 | 186 | 9.7 | 17.7 | 0.00 | 0.41 | 0.41 | 75 | 1007.6 |
| 20260506204542 | 20 | 277 | 6.4 | 19.3 | 0.00 | 0.41 | 0.41 | 76 | 1007.5 |
| 20260506204018 | 20 | 186 | 4.8 | 19.3 | 0.00 | 0.41 | 0.41 | 77 | 1007.5 |
| 20260506203517 | 20 | 259 | 8.0 | 20.9 | 0.00 | 0.41 | 0.41 | 77 | 1007.4 |
| 20260506203035 | 20 | 257 | 8.0 | 20.9 | 0.00 | 0.41 | 0.41 | 78 | 1007.4 |
| 20260506202519 | 19 | 193 | 6.4 | 17.7 | 0.00 | 0.41 | 0.41 | 78 | 1007.3 |
| 20260506202021 | 19 | 291 | 6.4 | 17.7 | 0.00 | 0.41 | 0.41 | 78 | 1007.4 |
| 20260506201534 | 19 | 253 | 4.8 | 19.3 | 0.00 | 0.41 | 0.41 | 79 | 1007.4 |
| 20260506201018 | 18 | 253 | 6.4 | 19.3 | 0.00 | 0.41 | 0.41 | 79 | 1007.4 |
| 20260506200518 | 18 | 278 | 4.8 | 17.7 | 0.00 | 0.41 | 0.41 | 78 | 1007.5 |
| 20260506200048 | 19 | 286 | 6.4 | 16.1 | 0.00 | 0.41 | 0.41 | 78 | 1007.4 |
| 20260506195518 | 19 | 320 | 6.4 | 16.1 | 0.00 | 0.41 | 0.41 | 78 | 1007.6 |
| 20260506195018 | 19 | 205 | 4.8 | 19.3 | 0.00 | 0.41 | 0.41 | 79 | 1007.5 |
| 20260506194541 | 18 | 346 | 6.4 | 19.3 | 0.00 | 0.41 | 0.41 | 79 | 1007.5 |
| 20260506194019 | 18 | 158 | 4.8 | 16.1 | 0.00 | 0.41 | 0.41 | 80 | 1007.7 |
| 20260506193517 | 18 | 318 | 6.4 | 17.7 | 0.00 | 0.41 | 0.41 | 81 | 1007.6 |
| 20260506193035 | 18 | 232 | 6.4 | 17.7 | 0.00 | 0.41 | 0.41 | 81 | 1007.6 |
| 20260506192519 | 18 | 245 | 6.4 | 17.7 | 0.00 | 0.41 | 0.41 | 81 | 1007.8 |
| 20260506192019 | 18 | 277 | 6.4 | 16.1 | 0.00 | 0.41 | 0.41 | 82 | 1007.8 |
| 20260506191535 | 18 | 281 | 4.8 | 17.7 | 0.00 | 0.41 | 0.41 | 82 | 1007.9 |
| 20260506191020 | 17 | 234 | 4.8 | 22.5 | 0.00 | 0.41 | 0.41 | 82 | 1007.9 |
| 20260506190521 | 17 | 204 | 6.4 | 22.5 | 0.00 | 0.41 | 0.41 | 82 | 1008.0 |
| 20260506190034 | 17 | 238 | 4.8 | 22.5 | 0.00 | 0.41 | 0.41 | 82 | 1007.9 |
| 20260506185519 | 17 | 217 | 4.8 | 22.5 | 0.00 | 0.41 | 0.41 | 82 | 1008.0 |
| 20260506185021 | 17 | 216 | 6.4 | 20.9 | 0.00 | 0.41 | 0.41 | 82 | 1008.0 |
| 20260506184540 | 17 | 196 | 8.0 | 20.9 | 0.00 | 0.41 | 0.41 | 83 | 1008.1 |
| 20260506184022 | 17 | 0 | 3.2 | 19.3 | 0.00 | 0.41 | 0.41 | 83 | 1008.1 |
| 20260506183518 | 17 | 146 | 6.4 | 24.1 | 0.00 | 0.41 | 0.41 | 83 | 1008.1 |
| 20260506183035 | 17 | 244 | 8.0 | 24.1 | 0.00 | 0.41 | 0.41 | 83 | 1008.2 |
| 20260506182517 | 17 | 236 | 8.0 | 20.9 | 0.00 | 0.41 | 0.41 | 84 | 1008.2 |
| 20260506182017 | 17 | 220 | 8.0 | 24.1 | 0.00 | 0.41 | 0.41 | 84 | 1008.1 |
| 20260506181555 | 17 | 259 | 11.3 | 29.0 | 0.00 | 0.41 | 0.41 | 84 | 1008.2 |
| 20260506181018 | 17 | 175 | 11.3 | 29.0 | 0.00 | 0.41 | 0.41 | 84 | 1008.2 |
| 20260506180522 | 17 | 180 | 12.9 | 24.1 | 0.00 | 0.41 | 0.41 | 84 | 1008.4 |
| 20260506180104 | 17 | 165 | 8.0 | 24.1 | 0.00 | 0.41 | 0.41 | 84 | 1008.2 |
| 20260506175518 | 17 | 203 | 9.7 | 25.7 | 0.00 | 0.41 | 0.41 | 84 | 1008.3 |
| 20260506175024 | 17 | 215 | 12.9 | 25.7 | 0.00 | 0.41 | 0.41 | 84 | 1008.2 |
| 20260506174541 | 17 | 227 | 9.7 | 24.1 | 0.00 | 0.41 | 0.41 | 84 | 1008.5 |
| 20260506174018 | 17 | 300 | 9.7 | 27.4 | 0.00 | 0.41 | 0.41 | 84 | 1008.4 |
| 20260506173518 | 17 | 202 | 6.4 | 27.4 | 0.00 | 0.41 | 0.41 | 85 | 1008.5 |
| 20260506173045 | 17 | 208 | 11.3 | 25.7 | 0.00 | 0.41 | 0.41 | 85 | 1008.5 |
| 20260506172519 | 17 | 223 | 8.0 | 20.9 | 0.00 | 0.41 | 0.41 | 85 | 1008.5 |
| 20260506172018 | 17 | 183 | 9.7 | 20.9 | 0.03 | 0.41 | 0.41 | 85 | 1008.6 |
| 20260506171535 | 17 | 198 | 9.7 | 19.3 | 0.03 | 0.41 | 0.41 | 85 | 1008.8 |
| 20260506171019 | 17 | 261 | 8.0 | 17.7 | 0.05 | 0.41 | 0.41 | 85 | 1008.8 |
| 20260506170521 | 17 | 211 | 8.0 | 24.1 | 0.05 | 0.41 | 0.41 | 86 | 1008.8 |
| 20260506170035 | 17 | 217 | 8.0 | 24.1 | 0.05 | 0.41 | 0.41 | 86 | 1008.7 |
| 20260506165519 | 17 | 225 | 14.5 | 24.1 | 0.08 | 0.41 | 0.41 | 86 | 1008.7 |
| 20260506165018 | 17 | 227 | 9.7 | 22.5 | 0.10 | 0.41 | 0.41 | 86 | 1008.8 |
| 20260506164544 | 17 | 232 | 9.7 | 25.7 | 0.13 | 0.41 | 0.41 | 86 | 1008.6 |
| 20260506164018 | 17 | 189 | 8.0 | 27.4 | 0.18 | 0.41 | 0.41 | 86 | 1008.5 |
| 20260506163519 | 17 | 202 | 14.5 | 27.4 | 0.20 | 0.41 | 0.41 | 86 | 1008.8 |
| 20260506163044 | 17 | 173 | 12.9 | 24.1 | 0.20 | 0.41 | 0.41 | 86 | 1008.8 |
| 20260506162519 | 17 | 227 | 12.9 | 22.5 | 0.23 | 0.41 | 0.41 | 85 | 1008.6 |
| 20260506162021 | 17 | 215 | 6.4 | 17.7 | 0.23 | 0.38 | 0.38 | 86 | 1008.7 |
| 20260506161536 | 16 | 223 | 6.4 | 17.7 | 0.25 | 0.38 | 0.38 | 85 | 1009.1 |
| 20260506161018 | 16 | 207 | 9.7 | 17.7 | 0.25 | 0.36 | 0.36 | 85 | 1009.4 |
| 20260506160518 | 16 | 183 | 9.7 | 17.7 | 0.28 | 0.36 | 0.36 | 85 | 1009.6 |
| 20260506160037 | 16 | 172 | 9.7 | 22.5 | 0.30 | 0.36 | 0.36 | 84 | 1009.7 |
| 20260506155517 | 17 | 179 | 6.4 | 22.5 | 0.30 | 0.33 | 0.33 | 84 | 1009.9 |
| 20260506155018 | 17 | 224 | 6.4 | 14.5 | 0.28 | 0.30 | 0.30 | 84 | 1009.9 |
| 20260506154537 | 17 | 204 | 6.4 | 14.5 | 0.25 | 0.25 | 0.25 | 83 | 1010.0 |
| 20260506154021 | 17 | 247 | 4.8 | 14.5 | 0.23 | 0.23 | 0.23 | 83 | 1010.1 |
| 20260506153518 | 17 | 263 | 6.4 | 14.5 | 0.20 | 0.20 | 0.20 | 82 | 1010.1 |
| 20260506153040 | 17 | 171 | 6.4 | 12.9 | 0.20 | 0.20 | 0.20 | 81 | 1010.0 |
| 20260506152519 | 17 | 200 | 4.8 | 14.5 | 0.15 | 0.15 | 0.15 | 81 | 1009.8 |
| 20260506152018 | 17 | 229 | 6.4 | 14.5 | 0.13 | 0.13 | 0.13 | 80 | 1009.8 |
| 20260506151541 | 17 | 190 | 4.8 | 19.3 | 0.13 | 0.13 | 0.13 | 79 | 1009.8 |
| 20260506151018 | 17 | 194 | 6.4 | 19.3 | 0.10 | 0.10 | 0.10 | 79 | 1009.8 |
| 20260506150518 | 17 | 198 | 6.4 | 16.1 | 0.08 | 0.08 | 0.08 | 78 | 1010.0 |
| 20260506150040 | 18 | 217 | 6.4 | 17.7 | 0.05 | 0.05 | 0.05 | 78 | 1009.8 |
| 20260506145519 | 18 | 207 | 6.4 | 17.7 | 0.03 | 0.03 | 0.03 | 76 | 1009.8 |
| 20260506145016 | 18 | 235 | 8.0 | 19.3 | 0.03 | 0.03 | 0.03 | 76 | 1009.6 |
| 20260506144546 | 18 | 194 | 11.3 | 19.3 | 0.00 | 0.00 | 0.00 | 75 | 1009.6 |
| 20260506144019 | 18 | 210 | 9.7 | 22.5 | 0.00 | 0.00 | 0.00 | 74 | 1009.8 |
| 20260506143518 | 18 | 242 | 9.7 | 22.5 | 0.00 | 0.00 | 0.00 | 73 | 1009.8 |
| 20260506143034 | 18 | 206 | 8.0 | 19.3 | 0.00 | 0.00 | 0.00 | 72 | 1009.9 |
| 20260506142518 | 18 | 224 | 8.0 | 22.5 | 0.00 | 0.00 | 0.00 | 71 | 1009.9 |
| 20260506142017 | 19 | 217 | 6.4 | 27.4 | 0.00 | 0.00 | 0.00 | 70 | 1009.9 |
| 20260506141541 | 19 | 180 | 9.7 | 27.4 | 0.00 | 0.00 | 0.00 | 69 | 1009.9 |
| 20260506141017 | 19 | 234 | 12.9 | 27.4 | 0.00 | 0.00 | 0.00 | 68 | 1009.8 |
| 20260506140520 | 19 | 295 | 8.0 | 20.9 | 0.00 | 0.00 | 0.00 | 68 | 1009.8 |
| 20260506140043 | 19 | 239 | 11.3 | 22.5 | 0.00 | 0.00 | 0.00 | 68 | 1009.6 |
| 20260506135518 | 19 | 194 | 9.7 | 22.5 | 0.00 | 0.00 | 0.00 | 68 | 1009.6 |
| 20260506135023 | 19 | 179 | 11.3 | 25.7 | 0.00 | 0.00 | 0.00 | 68 | 1009.7 |
| 20260506134539 | 19 | 202 | 9.7 | 29.0 | 0.00 | 0.00 | 0.00 | 69 | 1009.6 |
| 20260506134018 | 19 | 163 | 8.0 | 29.0 | 0.00 | 0.00 | 0.00 | 69 | 1009.6 |
| 20260506133518 | 19 | 215 | 6.4 | 27.4 | 0.00 | 0.00 | 0.00 | 69 | 1009.6 |
| 20260506133041 | 19 | 178 | 12.9 | 22.5 | 0.00 | 0.00 | 0.00 | 69 | 1009.9 |
| 20260506132522 | 19 | 216 | 9.7 | 19.3 | 0.00 | 0.00 | 0.00 | 69 | 1009.7 |
| 20260506132018 | 19 | 246 | 8.0 | 22.5 | 0.00 | 0.00 | 0.00 | 69 | 1009.6 |
| 20260506131536 | 19 | 233 | 9.7 | 22.5 | 0.00 | 0.00 | 0.00 | 69 | 1009.7 |
| 20260506131018 | 19 | 214 | 11.3 | 27.4 | 0.00 | 0.00 | 0.00 | 69 | 1009.7 |
| 20260506130518 | 19 | 163 | 11.3 | 27.4 | 0.00 | 0.00 | 0.00 | 69 | 1009.8 |
| 20260506130037 | 19 | 275 | 4.8 | 25.7 | 0.00 | 0.00 | 0.00 | 69 | 1009.9 |
| 20260506125517 | 19 | 282 | 11.3 | 25.7 | 0.00 | 0.00 | 0.00 | 69 | 1010.0 |
| 20260506125017 | 19 | 221 | 11.3 | 24.1 | 0.00 | 0.00 | 0.00 | 70 | 1010.0 |
| 20260506124533 | 19 | 240 | 6.4 | 24.1 | 0.00 | 0.00 | 0.00 | 70 | 1009.7 |
| 20260506124019 | 19 | 291 | 8.0 | 30.6 | 0.00 | 0.00 | 0.00 | 70 | 1009.8 |
| 20260506123522 | 18 | 297 | 11.3 | 30.6 | 0.00 | 0.00 | 0.00 | 71 | 1009.7 |
| 20260506123041 | 18 | 186 | 9.7 | 30.6 | 0.00 | 0.00 | 0.00 | 71 | 1009.8 |
| 20260506122518 | 18 | 194 | 9.7 | 24.1 | 0.00 | 0.00 | 0.00 | 71 | 1009.7 |
| 20260506122021 | 18 | 192 | 9.7 | 22.5 | 0.00 | 0.00 | 0.00 | 72 | 1009.6 |
| 20260506121536 | 18 | 209 | 9.7 | 25.7 | 0.00 | 0.00 | 0.00 | 72 | 1009.6 |
| 20260506121018 | 18 | 281 | 12.9 | 25.7 | 0.00 | 0.00 | 0.00 | 72 | 1009.6 |
| 20260506120518 | 18 | 204 | 12.9 | 22.5 | 0.00 | 0.00 | 0.00 | 73 | 1009.5 |
| 20260506120035 | 18 | 187 | 11.3 | 22.5 | 0.00 | 0.00 | 0.00 | 73 | 1009.5 |
| 20260506115520 | 18 | 222 | 9.7 | 22.5 | 0.00 | 0.00 | 0.00 | 73 | 1009.5 |
| 20260506115017 | 18 | 187 | 8.0 | 20.9 | 0.00 | 0.00 | 0.00 | 73 | 1009.6 |
| 20260506114535 | 18 | 193 | 9.7 | 25.7 | 0.00 | 0.00 | 0.00 | 74 | 1009.4 |
| 20260506114018 | 18 | 146 | 9.7 | 25.7 | 0.00 | 0.00 | 0.00 | 74 | 1009.5 |
| 20260506113517 | 18 | 144 | 12.9 | 33.8 | 0.00 | 0.00 | 0.00 | 74 | 1009.4 |
| 20260506113035 | 18 | 194 | 16.1 | 33.8 | 0.00 | 0.00 | 0.00 | 74 | 1009.4 |
| 20260506112520 | 18 | 177 | 14.5 | 35.4 | 0.00 | 0.00 | 0.00 | 74 | 1009.3 |
| 20260506112020 | 17 | 214 | 12.9 | 35.4 | 0.00 | 0.00 | 0.00 | 74 | 1009.4 |
| 20260506111540 | 17 | 206 | 12.9 | 30.6 | 0.00 | 0.00 | 0.00 | 74 | 1009.4 |
| 20260506111019 | 17 | 198 | 16.1 | 30.6 | 0.00 | 0.00 | 0.00 | 74 | 1009.3 |
| 20260506110518 | 17 | 200 | 14.5 | 30.6 | 0.00 | 0.00 | 0.00 | 74 | 1009.4 |
| 20260506110038 | 17 | 182 | 12.9 | 25.7 | 0.00 | 0.00 | 0.00 | 74 | 1009.3 |
| 20260506105518 | 17 | 233 | 12.9 | 35.4 | 0.00 | 0.00 | 0.00 | 75 | 1009.4 |
| 20260506105021 | 17 | 228 | 14.5 | 35.4 | 0.00 | 0.00 | 0.00 | 75 | 1009.4 |
| 20260506104535 | 17 | 218 | 16.1 | 33.8 | 0.00 | 0.00 | 0.00 | 75 | 1009.3 |
| 20260506104017 | 17 | 202 | 14.5 | 33.8 | 0.00 | 0.00 | 0.00 | 75 | 1009.3 |
| 20260506103518 | 17 | 219 | 12.9 | 30.6 | 0.00 | 0.00 | 0.00 | 75 | 1009.3 |
| 20260506103037 | 17 | 142 | 14.5 | 30.6 | 0.00 | 0.00 | 0.00 | 75 | 1009.4 |
| 20260506102518 | 17 | 219 | 11.3 | 29.0 | 0.00 | 0.00 | 0.00 | 75 | 1009.4 |
| 20260506102018 | 17 | 215 | 12.9 | 24.1 | 0.00 | 0.00 | 0.00 | 75 | 1009.3 |
| 20260506101536 | 17 | 202 | 9.7 | 22.5 | 0.00 | 0.00 | 0.00 | 75 | 1009.4 |
| 20260506101018 | 17 | 207 | 9.7 | 22.5 | 0.00 | 0.00 | 0.00 | 75 | 1009.4 |
| 20260506100522 | 17 | 167 | 9.7 | 25.7 | 0.00 | 0.00 | 0.00 | 75 | 1009.3 |
| 20260506100042 | 17 | 221 | 14.5 | 27.4 | 0.00 | 0.00 | 0.00 | 75 | 1009.4 |
| 20260506095518 | 17 | 212 | 11.3 | 27.4 | 0.00 | 0.00 | 0.00 | 75 | 1009.4 |
| 20260506095019 | 17 | 159 | 14.5 | 25.7 | 0.00 | 0.00 | 0.00 | 75 | 1009.4 |
| 20260506094539 | 18 | 217 | 11.3 | 27.4 | 0.00 | 0.00 | 0.00 | 74 | 1009.3 |
| 20260506094018 | 18 | 188 | 12.9 | 30.6 | 0.00 | 0.00 | 0.00 | 74 | 1009.2 |
| 20260506093518 | 18 | 194 | 16.1 | 30.6 | 0.00 | 0.00 | 0.00 | 74 | 1009.3 |
| 20260506093040 | 18 | 187 | 14.5 | 27.4 | 0.00 | 0.00 | 0.00 | 74 | 1009.2 |
| 20260506092518 | 18 | 208 | 12.9 | 27.4 | 0.00 | 0.00 | 0.00 | 74 | 1009.1 |
| 20260506092018 | 18 | 173 | 11.3 | 24.1 | 0.00 | 0.00 | 0.00 | 73 | 1009.1 |
| 20260506091536 | 18 | 209 | 12.9 | 27.4 | 0.00 | 0.00 | 0.00 | 73 | 1009.1 |
| 20260506091019 | 18 | 153 | 11.3 | 27.4 | 0.00 | 0.00 | 0.00 | 73 | 1009.2 |
| 20260506090517 | 18 | 165 | 14.5 | 30.6 | 0.00 | 0.00 | 0.00 | 73 | 1009.3 |
| 20260506090037 | 18 | 159 | 14.5 | 30.6 | 0.00 | 0.00 | 0.00 | 73 | 1009.2 |
| 20260506085517 | 18 | 164 | 11.3 | 24.1 | 0.00 | 0.00 | 0.00 | 73 | 1009.3 |
| 20260506085018 | 18 | 194 | 12.9 | 25.7 | 0.00 | 0.00 | 0.00 | 73 | 1009.4 |
| 20260506084538 | 18 | 181 | 11.3 | 25.7 | 0.00 | 0.00 | 0.00 | 73 | 1009.3 |
| 20260506084018 | 18 | 226 | 9.7 | 20.9 | 0.00 | 0.00 | 0.00 | 73 | 1009.4 |
| 20260506083518 | 18 | 207 | 11.3 | 19.3 | 0.00 | 0.00 | 0.00 | 73 | 1009.4 |
| 20260506083042 | 18 | 204 | 9.7 | 19.3 | 0.00 | 0.00 | 0.00 | 72 | 1009.4 |
| 20260506082518 | 18 | 182 | 11.3 | 20.9 | 0.00 | 0.00 | 0.00 | 72 | 1009.4 |
| 20260506082018 | 18 | 164 | 9.7 | 22.5 | 0.00 | 0.00 | 0.00 | 71 | 1009.4 |
| 20260506081537 | 18 | 183 | 11.3 | 27.4 | 0.00 | 0.00 | 0.00 | 71 | 1009.5 |
| 20260506081018 | 18 | 198 | 14.5 | 27.4 | 0.00 | 0.00 | 0.00 | 71 | 1009.5 |
| 20260506080518 | 18 | 181 | 11.3 | 25.7 | 0.00 | 0.00 | 0.00 | 71 | 1009.5 |
| 20260506073517 | 19 | 238 | 9.7 | 24.1 | 0.00 | 0.00 | 0.00 | 70 | 1009.7 |
| 20260506073035 | 19 | 209 | 12.9 | 24.1 | 0.00 | 0.00 | 0.00 | 70 | 1009.7 |
| 20260506072519 | 19 | 229 | 8.0 | 24.1 | 0.00 | 0.00 | 0.00 | 70 | 1009.6 |
| 20260506072018 | 19 | 215 | 12.9 | 24.1 | 0.00 | 0.00 | 0.00 | 70 | 1009.7 |
| 20260506071541 | 19 | 174 | 8.0 | 19.3 | 0.00 | 0.00 | 0.00 | 70 | 1009.8 |
| 20260506071018 | 19 | 156 | 9.7 | 19.3 | 0.00 | 0.00 | 0.00 | 70 | 1009.7 |
| 20260506070518 | 19 | 188 | 8.0 | 22.5 | 0.00 | 0.00 | 0.00 | 69 | 1009.7 |
| 20260506062517 | 20 | 197 | 8.0 | 16.1 | 0.00 | 0.00 | 0.00 | 68 | 1010.1 |
| 20260506062018 | 20 | 237 | 8.0 | 17.7 | 0.00 | 0.00 | 0.00 | 67 | 1010.1 |
| 20260506061534 | 20 | 218 | 8.0 | 17.7 | 0.00 | 0.00 | 0.00 | 67 | 1010.1 |
| 20260506061021 | 20 | 198 | 8.0 | 16.1 | 0.00 | 0.00 | 0.00 | 67 | 1010.1 |
| 20260506060518 | 20 | 195 | 8.0 | 16.1 | 0.00 | 0.00 | 0.00 | 67 | 1010.2 |
| 20260506051017 | 20 | 184 | 6.4 | 16.1 | 0.00 | 0.00 | 0.00 | 65 | 1010.6 |
| 20260506050517 | 20 | 192 | 6.4 | 14.5 | 0.00 | 0.00 | 0.00 | 64 | 1010.7 |
| 20260506045018 | 20 | 221 | 6.4 | 19.3 | 0.00 | 0.00 | 0.00 | 64 | 1010.8 |
| 20260506044541 | 20 | 209 | 6.4 | 19.3 | 0.00 | 0.00 | 0.00 | 63 | 1010.8 |
| 20260506044019 | 20 | 194 | 6.4 | 17.7 | 0.00 | 0.00 | 0.00 | 63 | 1010.8 |
| 20260506043519 | 20 | 210 | 6.4 | 19.3 | 0.00 | 0.00 | 0.00 | 63 | 1010.8 |
| 20260506043036 | 20 | 174 | 6.4 | 19.3 | 0.00 | 0.00 | 0.00 | 62 | 1010.8 |
| 20260506042519 | 20 | 160 | 6.4 | 17.7 | 0.00 | 0.00 | 0.00 | 62 | 1010.8 |
| 20260506042019 | 20 | 186 | 8.0 | 17.7 | 0.00 | 0.00 | 0.00 | 62 | 1010.8 |
| 20260506041547 | 20 | 146 | 8.0 | 17.7 | 0.00 | 0.00 | 0.00 | 62 | 1010.8 |
| 20260506041020 | 20 | 246 | 9.7 | 22.5 | 0.00 | 0.00 | 0.00 | 61 | 1010.7 |
| 20260506040520 | 20 | 188 | 9.7 | 24.1 | 0.00 | 0.00 | 0.00 | 61 | 1010.7 |
| 20260506040039 | 20 | 213 | 12.9 | 24.1 | 0.00 | 0.00 | 0.00 | 61 | 1010.7 |
| 20260506035518 | 20 | 212 | 9.7 | 24.1 | 0.00 | 0.00 | 0.00 | 61 | 1010.6 |
| 20260506035018 | 20 | 195 | 11.3 | 24.1 | 0.00 | 0.00 | 0.00 | 60 | 1010.6 |
| 20260506034549 | 20 | 221 | 9.7 | 24.1 | 0.00 | 0.00 | 0.00 | 60 | 1010.6 |
| 20260506034018 | 20 | 209 | 11.3 | 24.1 | 0.00 | 0.00 | 0.00 | 60 | 1010.6 |
| 20260506033518 | 20 | 188 | 9.7 | 22.5 | 0.00 | 0.00 | 0.00 | 60 | 1010.4 |
| 20260506033034 | 20 | 167 | 8.0 | 25.7 | 0.00 | 0.00 | 0.00 | 60 | 1010.3 |
| 20260506032517 | 20 | 148 | 11.3 | 25.7 | 0.00 | 0.00 | 0.00 | 60 | 1010.4 |
| 20260506032018 | 20 | 216 | 9.7 | 22.5 | 0.00 | 0.00 | 0.00 | 59 | 1010.4 |
| 20260506031536 | 20 | 183 | 9.7 | 24.1 | 0.00 | 0.00 | 0.00 | 59 | 1010.5 |
| 20260506031018 | 20 | 180 | 11.3 | 24.1 | 0.00 | 0.00 | 0.00 | 59 | 1010.4 |
| 20260506030517 | 20 | 213 | 8.0 | 24.1 | 0.00 | 0.00 | 0.00 | 59 | 1010.5 |
| 20260506030035 | 20 | 154 | 8.0 | 24.1 | 0.00 | 0.00 | 0.00 | 58 | 1010.6 |
| 20260506025518 | 21 | 223 | 11.3 | 24.1 | 0.00 | 0.00 | 0.00 | 58 | 1010.6 |
| 20260506025018 | 21 | 175 | 8.0 | 19.3 | 0.00 | 0.00 | 0.00 | 57 | 1010.7 |
| 20260506024536 | 21 | 201 | 8.0 | 19.3 | 0.00 | 0.00 | 0.00 | 57 | 1010.7 |
| 20260506024021 | 21 | 169 | 11.3 | 19.3 | 0.00 | 0.00 | 0.00 | 56 | 1010.8 |
| 20260506023518 | 21 | 208 | 9.7 | 25.7 | 0.00 | 0.00 | 0.00 | 56 | 1010.8 |
| 20260506023033 | 21 | 195 | 9.7 | 29.0 | 0.00 | 0.00 | 0.00 | 55 | 1010.7 |
| 20260506022521 | 21 | 181 | 12.9 | 29.0 | 0.00 | 0.00 | 0.00 | 54 | 1010.8 |
| 20260506022019 | 21 | 181 | 9.7 | 22.5 | 0.00 | 0.00 | 0.00 | 53 | 1010.7 |
| 20260506021550 | 22 | 149 | 6.4 | 17.7 | 0.00 | 0.00 | 0.00 | 51 | 1010.7 |
| 20260506021020 | 22 | 146 | 9.7 | 24.1 | 0.00 | 0.00 | 0.00 | 50 | 1010.6 |
| 20260506020518 | 22 | 163 | 9.7 | 24.1 | 0.00 | 0.00 | 0.00 | 49 | 1010.6 |
| 20260506020034 | 22 | 188 | 11.3 | 24.1 | 0.00 | 0.00 | 0.00 | 48 | 1010.5 |
| 20260506015520 | 22 | 215 | 6.4 | 25.7 | 0.00 | 0.00 | 0.00 | 47 | 1010.4 |
| 20260506015018 | 22 | 156 | 8.0 | 25.7 | 0.00 | 0.00 | 0.00 | 46 | 1010.4 |
| 20260506014541 | 23 | 208 | 8.0 | 24.1 | 0.00 | 0.00 | 0.00 | 46 | 1010.3 |
| 20260506014018 | 23 | 193 | 8.0 | 24.1 | 0.00 | 0.00 | 0.00 | 46 | 1010.2 |
| 20260506013522 | 23 | 184 | 9.7 | 25.7 | 0.00 | 0.00 | 0.00 | 45 | 1010.2 |
| 20260506013039 | 23 | 207 | 11.3 | 25.7 | 0.00 | 0.00 | 0.00 | 45 | 1010.2 |
| 20260506012516 | 23 | 196 | 8.0 | 20.9 | 0.00 | 0.00 | 0.00 | 44 | 1010.1 |
| 20260506012019 | 23 | 194 | 8.0 | 17.7 | 0.00 | 0.00 | 0.00 | 44 | 1010.0 |
| 20260506011559 | 23 | 187 | 8.0 | 27.4 | 0.00 | 0.00 | 0.00 | 44 | 1010.0 |
| 20260506011021 | 23 | 142 | 8.0 | 27.4 | 0.00 | 0.00 | 0.00 | 43 | 1010.0 |
| 20260506010518 | 23 | 229 | 11.3 | 32.2 | 0.00 | 0.00 | 0.00 | 43 | 1010.0 |
| 20260506010035 | 23 | 185 | 12.9 | 32.2 | 0.00 | 0.00 | 0.00 | 42 | 1009.9 |
| 20260506005518 | 23 | 228 | 9.7 | 24.1 | 0.00 | 0.00 | 0.00 | 42 | 1009.8 |
| 20260506005020 | 23 | 202 | 11.3 | 24.1 | 0.00 | 0.00 | 0.00 | 42 | 1009.9 |
| 20260506004541 | 24 | 218 | 9.7 | 20.9 | 0.00 | 0.00 | 0.00 | 41 | 1009.9 |
| 20260506004021 | 24 | 137 | 8.0 | 20.9 | 0.00 | 0.00 | 0.00 | 41 | 1009.8 |
| 20260506003518 | 24 | 208 | 9.7 | 22.5 | 0.00 | 0.00 | 0.00 | 40 | 1009.8 |
| 20260506003033 | 24 | 211 | 9.7 | 22.5 | 0.00 | 0.00 | 0.00 | 40 | 1009.7 |